Time,TemperatureF,DewpointF,PressureIn,WindDirection,WindDirectionDegrees,WindSpeedMPH,WindSpeedGustMPH,Humidity,HourlyPrecipIn,Conditions,Clouds,dailyrainin,SoftwareType,DateUTC
2017-03-25 00:03:00,63.9,51.5,30.05,SW,225,4.7,7.2,64,0.00,,,0.00,WUHU216HW,2017-03-25 04:03:00,
2017-03-25 00:08:00,63.7,51.3,30.05,SSW,203,3.4,7.2,64,0.00,,,0.00,WUHU216HW,2017-03-25 04:08:00,
2017-03-25 00:13:00,63.7,51.3,30.05,SW,225,3.6,4.7,64,0.00,,,0.00,WUHU216HW,2017-03-25 04:13:00,
2017-03-25 00:18:00,63.7,51.3,30.05,SSW,203,3.4,4.9,64,0.00,,,0.00,WUHU216HW,2017-03-25 04:18:00,
2017-03-25 00:23:00,63.7,51.3,30.05,SW,225,7.4,7.4,64,0.00,,,0.00,WUHU216HW,2017-03-25 04:23:00,
2017-03-25 00:28:00,63.9,51.5,30.05,SSW,203,2.5,7.4,64,0.00,,,0.00,WUHU216HW,2017-03-25 04:28:00,
2017-03-25 00:33:00,63.7,51.3,30.05,South,180,3.6,4.9,64,0.00,,,0.00,WUHU216HW,2017-03-25 04:33:00,
2017-03-25 00:38:00,63.7,51.3,30.05,South,180,2.5,5.4,64,0.00,,,0.00,WUHU216HW,2017-03-25 04:38:00,
2017-03-25 00:43:00,63.9,51.5,30.05,South,180,2.7,6.3,64,0.00,,,0.00,WUHU216HW,2017-03-25 04:43:00,
2017-03-25 00:48:00,63.7,51.3,30.05,SSE,158,1.1,8.3,64,0.00,,,0.00,WUHU216HW,2017-03-25 04:48:00,
2017-03-25 00:53:00,63.7,51.3,30.05,South,180,4.0,8.3,64,0.00,,,0.00,WUHU216HW,2017-03-25 04:53:00,
2017-03-25 00:58:00,63.9,51.5,30.04,South,180,3.6,6.3,64,0.00,,,0.00,WUHU216HW,2017-03-25 04:58:00,
2017-03-25 01:03:00,63.9,51.5,30.04,South,180,1.1,6.3,64,0.00,,,0.00,WUHU216HW,2017-03-25 05:03:00,
2017-03-25 01:08:00,63.9,51.5,30.04,South,180,1.3,6.0,64,0.00,,,0.00,WUHU216HW,2017-03-25 05:08:00,
2017-03-25 01:13:00,64.1,51.6,30.05,SSE,158,0.0,6.0,64,0.00,,,0.00,WUHU216HW,2017-03-25 05:13:00,
2017-03-25 01:18:00,63.7,51.3,30.05,South,180,2.2,5.1,64,0.00,,,0.00,WUHU216HW,2017-03-25 05:18:00,
2017-03-25 01:23:00,63.7,51.3,30.04,South,180,4.5,4.7,64,0.00,,,0.00,WUHU216HW,2017-03-25 05:23:00,
2017-03-25 01:28:00,63.7,51.3,30.04,SE,135,4.0,4.7,64,0.00,,,0.00,WUHU216HW,2017-03-25 05:28:00,
2017-03-25 01:33:00,63.5,51.1,30.04,South,180,2.5,4.7,64,0.00,,,0.00,WUHU216HW,2017-03-25 05:33:00,
2017-03-25 01:38:00,63.5,51.1,30.04,SSE,158,4.0,5.1,64,0.00,,,0.00,WUHU216HW,2017-03-25 05:38:00,
2017-03-25 01:43:00,63.7,51.3,30.04,South,180,3.8,5.1,64,0.00,,,0.00,WUHU216HW,2017-03-25 05:43:00,
2017-03-25 01:48:00,63.5,51.1,30.04,SE,135,3.4,4.9,64,0.00,,,0.00,WUHU216HW,2017-03-25 05:48:00,
2017-03-25 01:53:00,63.4,51.0,30.04,SSE,158,3.1,5.1,64,0.00,,,0.00,WUHU216HW,2017-03-25 05:53:00,
2017-03-25 01:58:00,63.0,50.6,30.03,SE,135,0.9,5.1,64,0.00,,,0.00,WUHU216HW,2017-03-25 05:58:00,
2017-03-25 02:03:00,62.6,50.7,30.04,SSE,158,1.1,3.1,65,0.00,,,0.00,WUHU216HW,2017-03-25 06:03:00,
2017-03-25 02:08:00,62.6,50.7,30.03,SSE,158,2.9,3.4,65,0.00,,,0.00,WUHU216HW,2017-03-25 06:08:00,
2017-03-25 02:13:00,62.3,50.3,30.04,SSE,158,2.5,3.4,65,0.00,,,0.00,WUHU216HW,2017-03-25 06:13:00,
2017-03-25 02:18:00,62.3,50.3,30.03,South,180,1.8,4.5,65,0.00,,,0.00,WUHU216HW,2017-03-25 06:18:00,
2017-03-25 02:23:00,62.1,50.2,30.03,SSE,158,2.9,4.9,65,0.00,,,0.00,WUHU216HW,2017-03-25 06:23:00,
2017-03-25 02:28:00,61.9,50.1,30.03,SSE,158,1.3,4.9,65,0.00,,,0.00,WUHU216HW,2017-03-25 06:28:00,
2017-03-25 02:33:00,61.6,49.7,30.03,SSE,158,2.5,4.7,65,0.00,,,0.00,WUHU216HW,2017-03-25 06:33:00,
2017-03-25 02:38:00,61.6,49.7,30.03,SSE,158,2.7,4.5,65,0.00,,,0.00,WUHU216HW,2017-03-25 06:38:00,
2017-03-25 02:43:00,61.4,49.5,30.03,SE,135,1.6,4.0,65,0.00,,,0.00,WUHU216HW,2017-03-25 06:43:00,
2017-03-25 02:48:00,61.4,49.5,30.02,South,180,1.3,4.0,65,0.00,,,0.00,WUHU216HW,2017-03-25 06:48:00,
2017-03-25 02:53:00,61.2,49.4,30.02,SSE,158,1.6,3.4,65,0.00,,,0.00,WUHU216HW,2017-03-25 06:53:00,
2017-03-25 02:58:00,61.2,49.4,30.02,SE,135,2.9,3.4,65,0.00,,,0.00,WUHU216HW,2017-03-25 06:58:00,
2017-03-25 03:03:00,61.0,49.2,30.02,ESE,113,3.4,4.5,65,0.00,,,0.00,WUHU216HW,2017-03-25 07:03:00,
2017-03-25 03:08:00,61.0,49.2,30.02,SE,135,2.9,4.5,65,0.00,,,0.00,WUHU216HW,2017-03-25 07:08:00,
2017-03-25 03:13:00,60.8,49.1,30.02,SSE,158,1.8,4.0,65,0.00,,,0.00,WUHU216HW,2017-03-25 07:13:00,
2017-03-25 03:18:00,60.7,48.9,30.02,SE,135,1.8,4.0,65,0.00,,,0.00,WUHU216HW,2017-03-25 07:18:00,
2017-03-25 03:23:00,60.7,48.9,30.02,SE,135,1.8,4.3,65,0.00,,,0.00,WUHU216HW,2017-03-25 07:23:00,
2017-03-25 03:28:00,60.5,48.7,30.02,SSE,158,4.7,4.7,65,0.00,,,0.00,WUHU216HW,2017-03-25 07:28:00,
2017-03-25 03:33:00,60.3,48.5,30.02,SSE,158,1.8,4.7,65,0.00,,,0.00,WUHU216HW,2017-03-25 07:33:00,
2017-03-25 03:38:00,60.3,48.5,30.02,SSE,158,3.6,4.7,65,0.00,,,0.00,WUHU216HW,2017-03-25 07:38:00,
2017-03-25 03:43:00,60.5,48.2,30.01,SSE,158,1.6,3.6,64,0.00,,,0.00,WUHU216HW,2017-03-25 07:43:00,
2017-03-25 03:44:00,60.5,48.2,30.01,SE,135,2.5,3.6,64,0.00,,,0.00,WUHU216HW,2017-03-25 07:44:00,
2017-03-25 03:48:00,60.3,48.1,30.02,SSE,158,2.0,3.6,64,0.00,,,0.00,WUHU216HW,2017-03-25 07:48:00,
2017-03-25 03:53:00,60.1,47.5,30.02,SE,135,3.4,3.4,63,0.00,,,0.00,WUHU216HW,2017-03-25 07:53:00,
2017-03-25 03:58:00,60.1,47.9,30.01,SSE,158,3.8,3.8,64,0.00,,,0.00,WUHU216HW,2017-03-25 07:58:00,
2017-03-25 04:03:00,60.3,48.1,30.01,SE,135,3.4,4.3,64,0.00,,,0.00,WUHU216HW,2017-03-25 08:03:00,
2017-03-25 04:08:00,60.1,47.9,30.01,SE,135,1.1,4.3,64,0.00,,,0.00,WUHU216HW,2017-03-25 08:08:00,
2017-03-25 04:13:00,60.3,48.1,30.01,South,180,2.7,3.4,64,0.00,,,0.00,WUHU216HW,2017-03-25 08:13:00,
2017-03-25 04:18:00,60.5,47.9,30.01,South,180,2.0,3.6,63,0.00,,,0.00,WUHU216HW,2017-03-25 08:18:00,
2017-03-25 04:23:00,60.5,47.9,30.00,SE,135,1.8,4.0,63,0.00,,,0.00,WUHU216HW,2017-03-25 08:23:00,
2017-03-25 04:28:00,60.5,47.9,30.00,SSE,158,2.2,4.0,63,0.00,,,0.00,WUHU216HW,2017-03-25 08:28:00,
2017-03-25 04:29:00,60.5,47.9,30.00,SSE,158,2.9,4.0,63,0.00,,,0.00,WUHU216HW,2017-03-25 08:29:00,
2017-03-25 04:34:00,60.5,47.9,30.00,SSE,158,2.2,3.8,63,0.00,,,0.00,WUHU216HW,2017-03-25 08:34:00,
2017-03-25 04:39:00,60.3,47.7,30.00,SE,135,2.9,4.3,63,0.00,,,0.00,WUHU216HW,2017-03-25 08:39:00,
2017-03-25 04:44:00,60.3,47.3,30.00,South,180,3.4,4.3,62,0.00,,,0.00,WUHU216HW,2017-03-25 08:44:00,
2017-03-25 04:49:00,60.5,47.4,30.00,SE,135,1.8,4.3,62,0.00,,,0.00,WUHU216HW,2017-03-25 08:49:00,
2017-03-25 04:54:00,60.5,47.4,30.00,SE,135,2.9,6.0,62,0.00,,,0.00,WUHU216HW,2017-03-25 08:54:00,
2017-03-25 04:59:00,60.5,47.4,30.00,ESE,113,3.4,6.0,62,0.00,,,0.00,WUHU216HW,2017-03-25 08:59:00,
2017-03-25 05:04:00,60.7,47.6,30.00,South,180,2.2,5.8,62,0.00,,,0.00,WUHU216HW,2017-03-25 09:04:00,
2017-03-25 05:09:00,60.7,47.6,30.00,SE,135,2.9,5.8,62,0.00,,,0.00,WUHU216HW,2017-03-25 09:09:00,
2017-03-25 05:14:00,60.8,47.8,29.99,ESE,113,3.4,5.6,62,0.00,,,0.00,WUHU216HW,2017-03-25 09:14:00,
2017-03-25 05:19:00,60.8,47.8,29.99,SE,135,2.2,5.6,62,0.00,,,0.00,WUHU216HW,2017-03-25 09:19:00,
2017-03-25 05:24:00,60.7,47.6,30.00,SSE,158,2.0,4.7,62,0.00,,,0.00,WUHU216HW,2017-03-25 09:24:00,
2017-03-25 05:29:00,60.7,47.6,29.99,SE,135,3.1,5.8,62,0.00,,,0.00,WUHU216HW,2017-03-25 09:29:00,
2017-03-25 05:34:00,60.7,47.6,30.00,SE,135,3.4,6.0,62,0.00,,,0.00,WUHU216HW,2017-03-25 09:34:00,
2017-03-25 05:39:00,60.8,47.8,30.00,SSE,158,5.4,6.0,62,0.00,,,0.00,WUHU216HW,2017-03-25 09:39:00,
2017-03-25 05:44:00,60.8,47.8,30.00,SSE,158,4.0,5.6,62,0.00,,,0.00,WUHU216HW,2017-03-25 09:44:00,
2017-03-25 05:49:00,60.8,47.8,30.00,SE,135,2.5,5.6,62,0.00,,,0.00,WUHU216HW,2017-03-25 09:49:00,
2017-03-25 05:54:00,60.7,47.6,30.00,ESE,113,3.4,5.8,62,0.00,,,0.00,WUHU216HW,2017-03-25 09:54:00,
2017-03-25 05:59:00,60.7,47.6,30.00,SE,135,1.8,5.8,62,0.00,,,0.00,WUHU216HW,2017-03-25 09:59:00,
2017-03-25 06:09:00,60.8,47.4,30.00,SE,135,1.8,5.8,61,0.00,,,0.00,WUHU216HW,2017-03-25 10:09:00,
2017-03-25 06:14:00,60.8,47.8,30.00,SE,135,3.1,5.8,62,0.00,,,0.00,WUHU216HW,2017-03-25 10:14:00,
2017-03-25 06:19:00,60.8,47.8,30.01,SE,135,3.4,5.1,62,0.00,,,0.00,WUHU216HW,2017-03-25 10:19:00,
2017-03-25 06:24:00,60.8,47.8,30.01,SE,135,3.4,5.1,62,0.00,,,0.00,WUHU216HW,2017-03-25 10:24:00,
2017-03-25 06:29:00,60.8,47.8,30.01,SE,135,4.0,4.9,62,0.00,,,0.00,WUHU216HW,2017-03-25 10:29:00,
2017-03-25 06:34:00,60.8,47.8,30.01,SE,135,3.6,4.3,62,0.00,,,0.00,WUHU216HW,2017-03-25 10:34:00,
2017-03-25 06:39:00,60.8,47.8,30.01,SSE,158,2.9,5.4,62,0.00,,,0.00,WUHU216HW,2017-03-25 10:39:00,
2017-03-25 06:44:00,60.8,47.8,30.01,SE,135,2.2,5.4,62,0.00,,,0.00,WUHU216HW,2017-03-25 10:44:00,
2017-03-25 06:49:00,60.8,47.8,30.01,SE,135,1.8,4.0,62,0.00,,,0.00,WUHU216HW,2017-03-25 10:49:00,
2017-03-25 06:54:00,60.7,47.6,30.01,SE,135,1.8,3.8,62,0.00,,,0.00,WUHU216HW,2017-03-25 10:54:00,
2017-03-25 06:59:00,60.8,47.8,30.01,SSE,158,2.9,4.0,62,0.00,,,0.00,WUHU216HW,2017-03-25 10:59:00,
2017-03-25 07:04:00,60.8,47.8,30.01,ESE,113,2.5,4.0,62,0.00,,,0.00,WUHU216HW,2017-03-25 11:04:00,
2017-03-25 07:09:00,60.8,47.8,30.01,SE,135,2.2,3.8,62,0.00,,,0.00,WUHU216HW,2017-03-25 11:09:00,
2017-03-25 07:14:00,60.8,47.8,30.01,SE,135,2.5,4.0,62,0.00,,,0.00,WUHU216HW,2017-03-25 11:14:00,
2017-03-25 07:19:00,60.8,47.8,30.01,SE,135,2.5,4.9,62,0.00,,,0.00,WUHU216HW,2017-03-25 11:19:00,
2017-03-25 07:24:00,60.8,47.8,30.01,SE,135,4.3,4.9,62,0.00,,,0.00,WUHU216HW,2017-03-25 11:24:00,
2017-03-25 07:29:00,60.8,47.8,30.01,SE,135,2.9,4.7,62,0.00,,,0.00,WUHU216HW,2017-03-25 11:29:00,
2017-03-25 07:34:00,60.8,47.8,30.01,SSE,158,4.5,5.4,62,0.00,,,0.00,WUHU216HW,2017-03-25 11:34:00,
2017-03-25 07:39:00,60.8,48.3,30.01,ESE,113,4.7,5.4,63,0.00,,,0.00,WUHU216HW,2017-03-25 11:39:00,
2017-03-25 07:44:00,60.7,48.1,30.01,SE,135,4.7,6.5,63,0.00,,,0.00,WUHU216HW,2017-03-25 11:44:00,
2017-03-25 07:49:00,60.8,48.3,30.01,SSE,158,5.8,6.5,63,0.00,,,0.00,WUHU216HW,2017-03-25 11:49:00,
2017-03-25 07:54:00,60.8,48.3,30.01,SE,135,3.1,5.8,63,0.00,,,0.00,WUHU216HW,2017-03-25 11:54:00,
2017-03-25 07:59:00,60.7,48.1,30.01,SE,135,3.1,5.4,63,0.00,,,0.00,WUHU216HW,2017-03-25 11:59:00,
2017-03-25 08:04:00,60.8,48.3,30.01,SE,135,3.8,6.3,63,0.00,,,0.00,WUHU216HW,2017-03-25 12:04:00,
2017-03-25 08:09:00,60.8,48.3,30.01,ESE,113,2.2,6.3,63,0.00,,,0.00,WUHU216HW,2017-03-25 12:09:00,
2017-03-25 08:14:00,60.8,48.3,30.01,SE,135,3.4,5.1,63,0.00,,,0.00,WUHU216HW,2017-03-25 12:14:00,
2017-03-25 08:19:00,60.8,48.3,30.01,ESE,113,3.6,6.0,63,0.00,,,0.00,WUHU216HW,2017-03-25 12:19:00,
2017-03-25 08:24:00,60.8,48.3,30.01,SE,135,5.4,6.3,63,0.00,,,0.00,WUHU216HW,2017-03-25 12:24:00,
2017-03-25 08:29:00,60.8,48.3,30.01,ESE,113,3.1,7.2,63,0.00,,,0.00,WUHU216HW,2017-03-25 12:29:00,
2017-03-25 08:34:00,60.8,48.3,30.01,SSE,158,5.4,7.2,63,0.00,,,0.00,WUHU216HW,2017-03-25 12:34:00,
2017-03-25 08:39:00,60.8,48.3,30.01,SE,135,5.4,6.5,63,0.00,,,0.00,WUHU216HW,2017-03-25 12:39:00,
2017-03-25 08:44:00,60.8,48.3,30.01,SE,135,5.4,7.4,63,0.00,,,0.00,WUHU216HW,2017-03-25 12:44:00,
2017-03-25 08:49:00,61.0,48.4,30.02,SE,135,4.0,7.4,63,0.00,,,0.00,WUHU216HW,2017-03-25 12:49:00,
2017-03-25 08:54:00,61.2,48.5,30.01,SE,135,5.8,7.6,63,0.00,,,0.00,WUHU216HW,2017-03-25 12:54:00,
2017-03-25 08:59:00,61.2,48.5,30.01,SE,135,3.8,7.6,63,0.00,,,0.00,WUHU216HW,2017-03-25 12:59:00,
2017-03-25 09:04:00,61.6,48.9,30.01,SE,135,5.1,6.5,63,0.00,,,0.00,WUHU216HW,2017-03-25 13:04:00,
2017-03-25 09:09:00,61.7,49.1,30.02,SE,135,5.4,8.3,63,0.00,,,0.00,WUHU216HW,2017-03-25 13:09:00,
2017-03-25 09:14:00,61.9,49.6,30.01,SE,135,6.3,8.3,64,0.00,,,0.00,WUHU216HW,2017-03-25 13:14:00,
2017-03-25 09:19:00,62.3,50.0,30.01,SE,135,4.0,7.6,64,0.00,,,0.00,WUHU216HW,2017-03-25 13:19:00,
2017-03-25 09:24:00,62.5,50.1,30.02,SSE,158,6.0,7.8,64,0.00,,,0.00,WUHU216HW,2017-03-25 13:24:00,
2017-03-25 09:29:00,62.8,50.4,30.02,SE,135,2.5,9.8,64,0.00,,,0.00,WUHU216HW,2017-03-25 13:29:00,
2017-03-25 09:34:00,62.8,50.4,30.02,ESE,113,3.8,9.8,64,0.00,,,0.00,WUHU216HW,2017-03-25 13:34:00,
2017-03-25 09:39:00,63.0,50.6,30.02,SSE,158,6.7,8.3,64,0.00,,,0.00,WUHU216HW,2017-03-25 13:39:00,
2017-03-25 09:44:00,63.4,50.5,30.02,SSE,158,7.2,8.1,63,0.00,,,0.00,WUHU216HW,2017-03-25 13:44:00,
2017-03-25 09:49:00,63.7,50.9,30.02,South,180,6.9,11.2,63,0.00,,,0.00,WUHU216HW,2017-03-25 13:49:00,
2017-03-25 09:54:00,64.3,51.4,30.02,SSE,158,2.5,11.2,63,0.00,,,0.00,WUHU216HW,2017-03-25 13:54:00,
2017-03-25 09:59:00,64.4,51.5,30.02,SSE,158,6.9,10.5,63,0.00,,,0.00,WUHU216HW,2017-03-25 13:59:00,
2017-03-25 10:04:00,65.0,52.0,30.02,SSE,158,4.7,10.7,63,0.00,,,0.00,WUHU216HW,2017-03-25 14:04:00,
2017-03-25 10:09:00,65.5,52.1,30.02,SE,135,8.1,17.9,62,0.00,,,0.00,WUHU216HW,2017-03-25 14:09:00,
2017-03-25 10:14:00,66.1,52.7,30.01,South,180,6.9,17.9,62,0.00,,,0.00,WUHU216HW,2017-03-25 14:14:00,
2017-03-25 10:19:00,66.4,52.6,30.01,SSE,158,5.1,14.3,61,0.00,,,0.00,WUHU216HW,2017-03-25 14:19:00,
2017-03-25 10:24:00,66.6,52.7,30.02,SSE,158,8.5,14.3,61,0.00,,,0.00,WUHU216HW,2017-03-25 14:24:00,
2017-03-25 10:29:00,66.8,52.5,30.01,South,180,8.3,16.3,60,0.00,,,0.00,WUHU216HW,2017-03-25 14:29:00,
2017-03-25 10:34:00,67.0,52.7,30.02,South,180,11.6,16.3,60,0.00,,,0.00,WUHU216HW,2017-03-25 14:34:00,
2017-03-25 10:39:00,67.1,52.8,30.02,SSE,158,6.3,14.3,60,0.00,,,0.00,WUHU216HW,2017-03-25 14:39:00,
2017-03-25 10:44:00,67.3,53.0,30.02,South,180,12.1,13.9,60,0.00,,,0.00,WUHU216HW,2017-03-25 14:44:00,
2017-03-25 10:49:00,67.7,53.3,30.02,SE,135,12.3,14.1,60,0.00,,,0.00,WUHU216HW,2017-03-25 14:49:00,
2017-03-25 10:54:00,68.0,53.6,30.02,West,270,6.9,14.1,60,0.00,,,0.00,WUHU216HW,2017-03-25 14:54:00,
2017-03-25 10:59:00,68.0,53.2,30.02,SSW,203,12.8,12.8,59,0.00,,,0.00,WUHU216HW,2017-03-25 14:59:00,
2017-03-25 11:04:00,68.0,53.2,30.02,SSW,203,11.0,17.2,59,0.00,,,0.00,WUHU216HW,2017-03-25 15:04:00,
2017-03-25 11:09:00,68.0,53.2,30.02,WSW,248,7.6,17.2,59,0.00,,,0.00,WUHU216HW,2017-03-25 15:09:00,
2017-03-25 11:14:00,68.4,53.6,30.01,SSW,203,6.5,16.3,59,0.00,,,0.00,WUHU216HW,2017-03-25 15:14:00,
2017-03-25 11:19:00,68.9,53.6,30.01,SSW,203,8.3,18.6,58,0.00,,,0.00,WUHU216HW,2017-03-25 15:19:00,
2017-03-25 11:24:00,69.5,53.6,30.02,SSW,203,14.5,19.2,57,0.00,,,0.00,WUHU216HW,2017-03-25 15:24:00,
2017-03-25 11:29:00,69.3,53.4,30.01,SSW,203,9.2,19.2,57,0.00,,,0.00,WUHU216HW,2017-03-25 15:29:00,
2017-03-25 11:34:00,69.5,53.6,30.01,SSW,203,8.3,17.9,57,0.00,,,0.00,WUHU216HW,2017-03-25 15:34:00,
2017-03-25 11:39:00,69.5,53.6,30.01,South,180,9.8,15.4,57,0.00,,,0.00,WUHU216HW,2017-03-25 15:39:00,
2017-03-25 11:44:00,69.3,53.9,30.01,South,180,6.5,14.1,58,0.00,,,0.00,WUHU216HW,2017-03-25 15:44:00,
2017-03-25 11:49:00,69.1,53.2,30.01,South,180,10.7,13.9,57,0.00,,,0.00,WUHU216HW,2017-03-25 15:49:00,
2017-03-25 11:54:00,68.9,53.6,30.01,SSE,158,13.9,14.1,58,0.00,,,0.00,WUHU216HW,2017-03-25 15:54:00,
2017-03-25 11:59:00,68.8,53.4,30.01,South,180,6.7,16.3,58,0.00,,,0.00,WUHU216HW,2017-03-25 15:59:00,
2017-03-25 12:04:00,68.6,53.2,30.01,SSE,158,9.8,16.3,58,0.00,,,0.00,WUHU216HW,2017-03-25 16:04:00,
2017-03-25 12:09:00,68.6,53.7,30.01,SE,135,14.1,16.6,59,0.00,,,0.00,WUHU216HW,2017-03-25 16:09:00,
2017-03-25 12:14:00,68.8,53.9,30.00,SE,135,9.8,16.6,59,0.00,,,0.00,WUHU216HW,2017-03-25 16:14:00,
2017-03-25 12:19:00,69.1,53.7,30.00,South,180,9.8,14.1,58,0.00,,,0.00,WUHU216HW,2017-03-25 16:19:00,
2017-03-25 12:24:00,69.3,54.4,30.00,South,180,2.5,12.8,59,0.00,,,0.00,WUHU216HW,2017-03-25 16:24:00,
2017-03-25 12:29:00,69.7,54.7,30.00,South,180,2.2,12.8,59,0.00,,,0.00,WUHU216HW,2017-03-25 16:29:00,
2017-03-25 12:34:00,70.2,54.7,30.00,South,180,6.9,12.3,58,0.00,,,0.00,WUHU216HW,2017-03-25 16:34:00,
2017-03-25 12:39:00,70.2,54.3,30.00,SSE,158,7.4,16.3,57,0.00,,,0.00,WUHU216HW,2017-03-25 16:39:00,
2017-03-25 12:44:00,70.4,54.5,30.00,SSE,158,9.8,16.3,57,0.00,,,0.00,WUHU216HW,2017-03-25 16:44:00,
2017-03-25 12:49:00,70.6,55.1,30.00,SE,135,7.6,18.3,58,0.00,,,0.00,WUHU216HW,2017-03-25 16:49:00,
2017-03-25 12:54:00,70.9,54.9,30.00,SE,135,14.3,18.3,57,0.00,,,0.00,WUHU216HW,2017-03-25 16:54:00,
2017-03-25 12:59:00,70.9,54.9,30.00,South,180,6.9,16.3,57,0.00,,,0.00,WUHU216HW,2017-03-25 16:59:00,
2017-03-25 13:04:00,71.3,55.7,29.99,SSE,158,7.6,14.8,58,0.00,,,0.00,WUHU216HW,2017-03-25 17:04:00,
2017-03-25 13:09:00,71.6,55.1,30.00,SSE,158,9.6,12.8,56,0.00,,,0.00,WUHU216HW,2017-03-25 17:09:00,
2017-03-25 13:14:00,71.6,55.1,29.99,South,180,4.7,15.4,56,0.00,,,0.00,WUHU216HW,2017-03-25 17:14:00,
2017-03-25 13:19:00,72.2,56.1,29.99,SE,135,4.9,15.4,57,0.00,,,0.00,WUHU216HW,2017-03-25 17:19:00,
2017-03-25 13:24:00,72.4,54.7,29.99,SE,135,8.9,12.1,54,0.00,,,0.00,WUHU216HW,2017-03-25 17:24:00,
2017-03-25 13:29:00,72.7,55.5,29.98,South,180,6.5,13.4,55,0.00,,,0.00,WUHU216HW,2017-03-25 17:29:00,
2017-03-25 13:30:00,72.7,55.5,29.98,South,180,5.4,13.4,55,0.00,,,0.00,WUHU216HW,2017-03-25 17:30:00,
2017-03-25 13:35:00,73.1,54.8,29.98,SSE,158,7.6,13.4,53,0.00,,,0.00,WUHU216HW,2017-03-25 17:35:00,
2017-03-25 13:40:00,73.6,55.4,29.98,SSE,158,9.4,11.6,53,0.00,,,0.00,WUHU216HW,2017-03-25 17:40:00,
2017-03-25 13:45:00,74.2,55.4,29.98,SE,135,9.8,13.9,52,0.00,,,0.00,WUHU216HW,2017-03-25 17:45:00,
2017-03-25 13:46:00,74.3,55.5,29.98,SSE,158,15.9,15.9,52,0.00,,,0.00,WUHU216HW,2017-03-25 17:46:00,
2017-03-25 13:51:00,75.2,56.0,29.97,South,180,5.1,15.9,51,0.00,,,0.00,WUHU216HW,2017-03-25 17:51:00,
2017-03-25 13:56:00,76.0,56.1,29.97,ESE,113,11.0,13.4,50,0.00,,,0.00,WUHU216HW,2017-03-25 17:56:00,
2017-03-25 14:01:00,76.3,56.4,29.97,SE,135,7.8,13.2,50,0.00,,,0.00,WUHU216HW,2017-03-25 18:01:00,
2017-03-25 14:06:00,76.0,54.9,29.97,South,180,9.2,16.8,48,0.00,,,0.00,WUHU216HW,2017-03-25 18:06:00,
2017-03-25 14:11:00,75.8,55.4,29.96,SSE,158,12.8,16.8,49,0.00,,,0.00,WUHU216HW,2017-03-25 18:11:00,
2017-03-25 14:16:00,76.1,55.6,29.97,SSE,158,9.2,12.8,49,0.00,,,0.00,WUHU216HW,2017-03-25 18:16:00,
2017-03-25 14:21:00,76.3,55.8,29.96,SE,135,7.8,15.9,49,0.00,,,0.00,WUHU216HW,2017-03-25 18:21:00,
2017-03-25 14:26:00,76.7,55.5,29.97,SSE,158,11.6,17.9,48,0.00,,,0.00,WUHU216HW,2017-03-25 18:26:00,
2017-03-25 14:31:00,76.1,55.0,29.96,ESE,113,11.0,17.9,48,0.00,,,0.00,WUHU216HW,2017-03-25 18:31:00,
2017-03-25 14:36:00,75.6,55.8,29.97,South,180,8.9,14.5,50,0.00,,,0.00,WUHU216HW,2017-03-25 18:36:00,
2017-03-25 14:41:00,75.6,56.3,29.97,ESE,113,9.8,14.5,51,0.00,,,0.00,WUHU216HW,2017-03-25 18:41:00,
2017-03-25 14:46:00,76.3,55.8,29.96,ESE,113,7.6,16.3,49,0.00,,,0.00,WUHU216HW,2017-03-25 18:46:00,
2017-03-25 14:51:00,76.0,55.5,29.96,SE,135,7.4,16.3,49,0.00,,,0.00,WUHU216HW,2017-03-25 18:51:00,